EZY985 EGKK-EGPH

Flight info

Callsign EZY985
Flight time N/A
Altitude 36000
Route LAM L10 BPK UN601 RIBEL DCT INPIP
Aircraft A320/M-SDE3FGHIRWY/LB1

Departure

Time 2026-05-04 10:33
Airport London Gatwick Airport (EGKK)

Arrival

Time N/A
Airport Edinburgh Airport (EGPH)
Time Latitude Longitude Altitude Speed Heading
2026-05-04 09:56 51.15866 -0.16909 205 ft 0 kts 130°
2026-05-04 10:16 51.15909 -0.16992 217 ft 2 kts 138°
2026-05-04 10:16 51.15924 -0.17002 213 ft 2 kts 208°
2026-05-04 10:16 51.15931 -0.16996 210 ft 0 kts 242°
2026-05-04 10:19 51.15811 -0.17162 208 ft 4 kts 251°
2026-05-04 10:19 51.15794 -0.17262 207 ft 16 kts 258°
2026-05-04 10:19 51.15765 -0.17472 211 ft 21 kts 257°
2026-05-04 10:19 51.15743 -0.17644 209 ft 15 kts 258°
2026-05-04 10:20 51.15722 -0.17796 205 ft 13 kts 257°
2026-05-04 10:20 51.15702 -0.17935 213 ft 12 kts 257°
2026-05-04 10:20 51.15685 -0.18063 214 ft 11 kts 258°
2026-05-04 10:20 51.15669 -0.18180 211 ft 10 kts 257°
2026-05-04 10:21 51.15654 -0.18287 205 ft 10 kts 257°
2026-05-04 10:21 51.15615 -0.18354 208 ft 8 kts 193°
2026-05-04 10:21 51.15561 -0.18342 211 ft 7 kts 167°
2026-05-04 10:21 51.15506 -0.18322 205 ft 10 kts 167°
2026-05-04 10:22 51.15325 -0.18259 205 ft 17 kts 167°
2026-05-04 10:22 51.15225 -0.18229 205 ft 14 kts 187°
2026-05-04 10:22 51.15181 -0.18366 205 ft 17 kts 259°
2026-05-04 10:23 51.15153 -0.18565 210 ft 20 kts 257°
2026-05-04 10:23 51.15121 -0.18811 205 ft 25 kts 258°
2026-05-04 10:25 51.14837 -0.20869 212 ft 25 kts 258°
2026-05-04 10:25 51.14805 -0.21099 208 ft 16 kts 257°
2026-05-04 10:25 51.14780 -0.21220 208 ft 0 kts 254°
2026-05-04 10:25 51.14778 -0.21236 209 ft 4 kts 255°
2026-05-04 10:26 51.14768 -0.21296 215 ft 8 kts 258°
2026-05-04 10:26 51.14764 -0.21329 209 ft 0 kts 257°
2026-05-04 10:27 51.14764 -0.21330 209 ft 1 kts 257°
2026-05-04 10:27 51.14736 -0.21399 211 ft 16 kts 212°
2026-05-04 10:28 51.14679 -0.21391 205 ft 4 kts 142°
2026-05-04 10:28 51.14671 -0.21378 212 ft 0 kts 133°
2026-05-04 10:29 51.14643 -0.21344 208 ft 10 kts 154°
2026-05-04 10:29 51.14613 -0.21328 209 ft 0 kts 163°
2026-05-04 10:31 51.14597 -0.21320 209 ft 10 kts 163°
2026-05-04 10:32 51.14521 -0.21173 209 ft 0 kts 81°
2026-05-04 10:33 51.14522 -0.21162 207 ft 7 kts 79°
2026-05-04 10:33 51.14606 -0.20571 209 ft 104 kts 77°
2026-05-04 10:33 51.14831 -0.19035 351 ft 169 kts 77°
2026-05-04 10:33 51.15062 -0.16991 882 ft 204 kts 79°
2026-05-04 10:34 51.15349 -0.14747 1978 ft 213 kts 77°
2026-05-04 10:34 51.15686 -0.12328 2622 ft 235 kts 77°
2026-05-04 10:34 51.16064 -0.09673 3328 ft 253 kts 77°
2026-05-04 10:34 51.16551 -0.06946 4281 ft 261 kts 64°
2026-05-04 10:35 51.17554 -0.04522 4819 ft 267 kts 53°
2026-05-04 10:35 51.18637 -0.02093 5664 ft 270 kts 63°
2026-05-04 10:35 51.19362 0.00697 6632 ft 274 kts 71°
2026-05-04 10:35 51.20017 0.03595 7539 ft 281 kts 71°
2026-05-04 10:36 51.20678 0.06553 8475 ft 286 kts 71°
2026-05-04 10:36 51.21385 0.09536 9398 ft 291 kts 64°
2026-05-04 10:36 51.22665 0.12087 10211 ft 303 kts 39°
2026-05-04 10:36 51.24584 0.13705 10559 ft 326 kts 14°
2026-05-04 10:37 51.26878 0.14167 11165 ft 337 kts
2026-05-04 10:37 51.29243 0.14344 11984 ft 343 kts
2026-05-04 10:37 51.31651 0.14502 12703 ft 349 kts
2026-05-04 10:37 51.34082 0.14657 12992 ft 350 kts
2026-05-04 10:39 51.48839 0.15675 15519 ft 363 kts
2026-05-04 10:39 51.51377 0.15846 16242 ft 367 kts
2026-05-04 10:39 51.53953 0.16020 16965 ft 372 kts
2026-05-04 10:40 51.56553 0.16194 17682 ft 376 kts
2026-05-04 10:40 51.59183 0.16366 18378 ft 380 kts
2026-05-04 10:40 51.61837 0.16533 18993 ft 384 kts
2026-05-04 10:40 51.64464 0.16708 19607 ft 387 kts
2026-05-04 10:41 51.67133 0.16840 20216 ft 389 kts 356°
2026-05-04 10:41 51.69780 0.16052 20806 ft 389 kts 338°
2026-05-04 10:41 51.72166 0.14013 21417 ft 388 kts 323°
2026-05-04 10:41 51.74393 0.11524 22030 ft 390 kts 322°
2026-05-04 10:42 51.76629 0.09008 22626 ft 393 kts 322°
2026-05-04 10:42 51.78877 0.06476 23239 ft 396 kts 322°
2026-05-04 10:42 51.81146 0.03920 23795 ft 398 kts 321°
2026-05-04 10:42 51.83425 0.01351 24360 ft 398 kts 321°
2026-05-04 10:43 51.85710 -0.01217 24843 ft 401 kts 321°
2026-05-04 10:44 52.02232 -0.19877 27756 ft 427 kts 320°
2026-05-04 10:45 52.03883 -0.21755 28005 ft 429 kts 320°
2026-05-04 10:45 52.06308 -0.24515 28451 ft 431 kts 321°
2026-05-04 10:45 52.08775 -0.27323 28892 ft 434 kts 321°
2026-05-04 10:45 52.11251 -0.30148 29298 ft 437 kts 321°
2026-05-04 10:46 52.13748 -0.33000 29703 ft 440 kts 321°
2026-05-04 10:46 52.16263 -0.35868 30072 ft 443 kts 321°
2026-05-04 10:46 52.18795 -0.38759 30389 ft 446 kts 321°
2026-05-04 10:46 52.21337 -0.41670 30704 ft 448 kts 321°
2026-05-04 10:47 52.23894 -0.44601 31011 ft 450 kts 321°
2026-05-04 10:47 52.26464 -0.47553 31326 ft 452 kts 321°
2026-05-04 10:47 52.29038 -0.50513 31640 ft 454 kts 322°
2026-05-04 10:47 52.31619 -0.53485 32068 ft 453 kts 323°
2026-05-04 10:49 52.49481 -0.74217 34846 ft 449 kts 323°
2026-05-04 10:49 52.52028 -0.77186 35142 ft 449 kts 323°
2026-05-04 10:50 52.54571 -0.80155 35455 ft 449 kts 323°
2026-05-04 10:51 52.72241 -1.00911 36049 ft 442 kts 324°
2026-05-04 10:52 52.74742 -1.03864 36071 ft 442 kts 324°
2026-05-04 10:52 52.79703 -1.09738 36078 ft 441 kts 324°
2026-05-04 10:54 52.99692 -1.33293 36085 ft 441 kts 328°
2026-05-04 10:56 53.20661 -1.54334 36082 ft 440 kts 329°
2026-05-04 10:57 53.25900 -1.59759 36092 ft 440 kts 329°
2026-05-04 10:57 53.31072 -1.65093 36097 ft 439 kts 330°
2026-05-04 10:58 53.36271 -1.70456 36097 ft 438 kts 329°
2026-05-04 10:58 53.41451 -1.75833 36095 ft 437 kts 329°
2026-05-04 10:59 53.46621 -1.81217 36095 ft 437 kts 329°
2026-05-04 10:59 53.51762 -1.86552 36091 ft 437 kts 329°
2026-05-04 11:00 53.56961 -1.91973 36088 ft 437 kts 329°
2026-05-04 11:02 53.77806 -2.12674 36081 ft 431 kts 341°
2026-05-04 11:05 54.19301 -2.41201 36080 ft 428 kts 340°
2026-05-04 11:06 54.24819 -2.45041 36078 ft 427 kts 339°
2026-05-04 11:06 54.27581 -2.46968 35900 ft 428 kts 340°
2026-05-04 11:06 54.30336 -2.48896 35647 ft 427 kts 340°